When you browse on this site, cookies collect data to enhance your experience and personalize the content and advertising you see.
Visit our Privacy Policy to learn more. By continuing to use the site, you agree to this use of cookies and data.
  • In Österreich
  • Länderverzeichnis
  • Für 7 Tage
  • Wassertemperatur
  • Satellitenkarten
  • Wetterkarte
  • News
  • Widgets
  • user-avatar
    Anmelden

    Stündliche Wetter Scharan

    Heute, 25 Juni, Dienstag

    Zeit Temperatur Niederschläge Wind Luftdruck Luftfeuchtigkeit
    00:00 +20°C° 0 mm 1 m/S 588 mmHg 52%
    01:00 +20°C° 0 mm 1 m/S 588 mmHg 53%
    02:00 +20°C° 0 mm 1 m/S 588 mmHg 54%
    03:00 +19°C° 0 mm 1 m/S 588 mmHg 55%
    04:00 +19°C° 0 mm 1 m/S 587 mmHg 57%
    05:00 +18°C° 0 mm 1 m/S 587 mmHg 58%
    06:00 +19°C° 0 mm 1 m/S 588 mmHg 52%
    07:00 +21°C° 0 mm 1 m/S 589 mmHg 46%
    08:00 +22°C° 0 mm 1 m/S 589 mmHg 40%
    09:00 +23°C° 0 mm 1 m/S 590 mmHg 35%
    10:00 +24°C° 0 mm 1 m/S 590 mmHg 29%
    11:00 +26°C° 0 mm 1 m/S 590 mmHg 24%
    12:00 +27°C° 0 mm 1 m/S 590 mmHg 20%
    13:00 +28°C° 0 mm 2 m/S 590 mmHg 16%
    14:00 +29°C° 0 mm 2 m/S 590 mmHg 13%
    15:00 +29°C° 0 mm 3 m/S 590 mmHg 13%
    16:00 +30°C° 0 mm 3 m/S 590 mmHg 13%
    17:00 +30°C° 0 mm 4 m/S 590 mmHg 13%
    18:00 +29°C° 0 mm 3 m/S 589 mmHg 16%
    19:00 +28°C° 0 mm 3 m/S 589 mmHg 20%
    20:00 +27°C° 0 mm 3 m/S 589 mmHg 23%
    21:00 +26°C° 0 mm 3 m/S 588 mmHg 28%
    22:00 +25°C° 0 mm 3 m/S 588 mmHg 32%
    23:00 +23°C° 0 mm 4 m/S 588 mmHg 37%

    Morgen, 26 Juni, Mittwoch

    Zeit Temperatur Niederschläge Wind Luftdruck Luftfeuchtigkeit
    00:00 +24°C° 0 mm 3 m/S 588 mmHg 37%
    01:00 +23°C° 0 mm 2 m/S 587 mmHg 38%
    02:00 +21°C° 0 mm 2 m/S 587 mmHg 38%
    03:00 +21°C° 0 mm 2 m/S 586 mmHg 37%
    04:00 +20°C° 0 mm 2 m/S 586 mmHg 35%
    05:00 +19°C° 0 mm 2 m/S 586 mmHg 34%
    06:00 +20°C° 0 mm 2 m/S 586 mmHg 31%
    07:00 +22°C° 0 mm 1 m/S 587 mmHg 28%
    08:00 +23°C° 0 mm 1 m/S 588 mmHg 25%
    09:00 +25°C° 0 mm 1 m/S 588 mmHg 21%
    10:00 +26°C° 0 mm 1 m/S 588 mmHg 18%
    11:00 +28°C° 0 mm 1 m/S 589 mmHg 14%
    12:00 +29°C° 0 mm 2 m/S 589 mmHg 12%
    13:00 +30°C° 0 mm 3 m/S 589 mmHg 11%
    14:00 +32°C° 0 mm 4 m/S 589 mmHg 9%
    15:00 +32°C° 0 mm 4 m/S 589 mmHg 9%
    16:00 +32°C° 0 mm 4 m/S 588 mmHg 9%
    17:00 +32°C° 0 mm 4 m/S 588 mmHg 9%
    18:00 +30°C° 0 mm 5 m/S 588 mmHg 10%
    19:00 +30°C° 0 mm 6 m/S 588 mmHg 12%
    20:00 +29°C° 0 mm 7 m/S 588 mmHg 13%
    21:00 +28°C° 0 mm 6 m/S 587 mmHg 20%
    22:00 +26°C° 0 mm 5 m/S 587 mmHg 26%
    23:00 +25°C° 0 mm 5 m/S 587 mmHg 33%

    übermorgen, 27 Juni, Donnerstag

    Zeit Temperatur Niederschläge Wind Luftdruck Luftfeuchtigkeit
    00:00 +23°C° 0 mm 4 m/S 586 mmHg 36%
    01:00 +22°C° 0 mm 3 m/S 585 mmHg 39%
    02:00 +23°C° 0 mm 2 m/S 585 mmHg 42%
    03:00 +21°C° 0 mm 2 m/S 585 mmHg 42%
    04:00 +21°C° 0 mm 2 m/S 584 mmHg 42%
    05:00 +20°C° 0 mm 2 m/S 584 mmHg 43%
    06:00 +21°C° 0 mm 2 m/S 585 mmHg 39%
    07:00 +23°C° 0 mm 2 m/S 585 mmHg 35%
    08:00 +24°C° 0 mm 2 m/S 586 mmHg 31%
    09:00 +25°C° 0 mm 2 m/S 586 mmHg 27%
    10:00 +27°C° 0 mm 1 m/S 587 mmHg 24%
    11:00 +28°C° 0 mm 1 m/S 587 mmHg 20%
    12:00 +29°C° 0 mm 2 m/S 587 mmHg 17%
    13:00 +30°C° 0 mm 3 m/S 587 mmHg 14%
    14:00 +32°C° 0 mm 4 m/S 587 mmHg 10%
    15:00 +32°C° 0 mm 4 m/S 587 mmHg 10%
    16:00 +32°C° 0 mm 5 m/S 587 mmHg 10%
    17:00 +33°C° 0 mm 5 m/S 586 mmHg 9%
    18:00 +30°C° 0 mm 4 m/S 586 mmHg 13%
    19:00 +29°C° 0 mm 4 m/S 586 mmHg 17%
    20:00 +28°C° 0 mm 3 m/S 586 mmHg 21%
    21:00 +27°C° 0 mm 3 m/S 586 mmHg 25%
    22:00 +26°C° 0 mm 3 m/S 586 mmHg 30%
    23:00 +25°C° 0 mm 3 m/S 586 mmHg 35%

    28 Juni, Freitag

    Zeit Temperatur Niederschläge Wind Luftdruck Luftfeuchtigkeit
    00:00 +24°C° 0 mm 2 m/S 585 mmHg 34%
    01:00 +24°C° 0 mm 2 m/S 585 mmHg 33%
    02:00 +23°C° 0 mm 2 m/S 584 mmHg 32%
    03:00 +23°C° 0 mm 2 m/S 584 mmHg 31%
    04:00 +21°C° 0 mm 2 m/S 584 mmHg 30%
    05:00 +20°C° 0 mm 2 m/S 584 mmHg 29%
    06:00 +21°C° 0 mm 2 m/S 584 mmHg 26%
    07:00 +24°C° 0 mm 2 m/S 585 mmHg 23%
    08:00 +25°C° 0 mm 3 m/S 586 mmHg 20%
    09:00 +26°C° 0 mm 2 m/S 586 mmHg 19%
    10:00 +27°C° 0 mm 2 m/S 587 mmHg 18%
    11:00 +28°C° 0 mm 2 m/S 587 mmHg 18%
    12:00 +29°C° 0 mm 2 m/S 587 mmHg 15%
    13:00 +30°C° 0 mm 2 m/S 587 mmHg 13%
    14:00 +31°C° 0 mm 2 m/S 587 mmHg 11%
    15:00 +31°C° 0 mm 3 m/S 587 mmHg 11%
    16:00 +31°C° 0 mm 3 m/S 587 mmHg 11%
    17:00 +33°C° 0 mm 4 m/S 587 mmHg 11%
    18:00 +31°C° 0 mm 3 m/S 586 mmHg 13%
    19:00 +30°C° 0 mm 2 m/S 586 mmHg 15%
    20:00 +29°C° 0 mm 2 m/S 586 mmHg 17%
    21:00 +28°C° 0 mm 2 m/S 586 mmHg 21%
    22:00 +27°C° 0 mm 2 m/S 586 mmHg 24%
    23:00 +27°C° 0 mm 2 m/S 586 mmHg 28%

    29 Juni, Samstag

    Zeit Temperatur Niederschläge Wind Luftdruck Luftfeuchtigkeit
    00:00 +26°C° 0 mm 2 m/S 586 mmHg 29%
    01:00 +25°C° 0 mm 2 m/S 585 mmHg 31%
    02:00 +24°C° 0 mm 1 m/S 585 mmHg 32%
    03:00 +23°C° 0 mm 2 m/S 585 mmHg 31%
    04:00 +23°C° 0 mm 2 m/S 584 mmHg 30%
    05:00 +21°C° 0 mm 2 m/S 584 mmHg 30%
    06:00 +23°C° 0 mm 2 m/S 585 mmHg 27%
    07:00 +24°C° 0 mm 2 m/S 585 mmHg 24%
    08:00 +25°C° 0 mm 2 m/S 586 mmHg 22%
    09:00 +27°C° 0 mm 2 m/S 586 mmHg 20%
    10:00 +28°C° 0 mm 1 m/S 587 mmHg 19%
    11:00 +27°C° 0 mm 0 m/S 587 mmHg 18%
    12:00 +30°C° 0 mm 1 m/S 587 mmHg 15%
    13:00 +31°C° 0 mm 2 m/S 587 mmHg 13%
    14:00 +33°C° 0 mm 3 m/S 587 mmHg 10%
    15:00 +34°C° 0 mm 4 m/S 587 mmHg 10%
    16:00 +34°C° 0 mm 4 m/S 587 mmHg 10%
    17:00 +34°C° 0 mm 5 m/S 587 mmHg 10%
    18:00 +33°C° 0 mm 4 m/S 586 mmHg 11%
    19:00 +31°C° 0 mm 3 m/S 586 mmHg 11%
    20:00 +31°C° 0 mm 3 m/S 586 mmHg 12%
    21:00 +29°C° 0 mm 3 m/S 586 mmHg 17%
    22:00 +28°C° 0 mm 4 m/S 586 mmHg 22%
    23:00 +27°C° 0 mm 4 m/S 586 mmHg 27%

    30 Juni, Sonntag

    Zeit Temperatur Niederschläge Wind Luftdruck Luftfeuchtigkeit
    00:00 +26°C° 0 mm 4 m/S 585 mmHg 29%
    01:00 +25°C° 0 mm 3 m/S 585 mmHg 31%
    02:00 +25°C° 0 mm 2 m/S 584 mmHg 33%
    03:00 +24°C° 0 mm 2 m/S 584 mmHg 34%
    04:00 +23°C° 0 mm 1 m/S 584 mmHg 34%
    05:00 +23°C° 0 mm 1 m/S 584 mmHg 35%
    06:00 +24°C° 0 mm 1 m/S 585 mmHg 32%
    07:00 +25°C° 0 mm 1 m/S 585 mmHg 29%
    08:00 +27°C° 0 mm 2 m/S 586 mmHg 26%
    09:00 +28°C° 0 mm 1 m/S 587 mmHg 22%
    10:00 +29°C° 0 mm 1 m/S 587 mmHg 19%
    11:00 +31°C° 0 mm 1 m/S 587 mmHg 15%
    12:00 +32°C° 0 mm 2 m/S 587 mmHg 13%
    13:00 +34°C° 0 mm 2 m/S 587 mmHg 11%
    14:00 +35°C° 0 mm 3 m/S 587 mmHg 10%
    15:00 +35°C° 0 mm 3 m/S 587 mmHg 9%
    16:00 +35°C° 0 mm 3 m/S 587 mmHg 9%
    17:00 +35°C° 0 mm 3 m/S 586 mmHg 9%
    18:00 +34°C° 0 mm 2 m/S 586 mmHg 10%
    19:00 +32°C° 0 mm 2 m/S 586 mmHg 11%
    20:00 +31°C° 0 mm 2 m/S 586 mmHg 13%
    21:00 +30°C° 0 mm 2 m/S 586 mmHg 16%
    22:00 +29°C° 0 mm 2 m/S 586 mmHg 19%
    23:00 +28°C° 0 mm 2 m/S 586 mmHg 23%
    Mehr zeigen